Location: Vlissingen
(51.4500°N, 3.5830°E)
Time: 07:50:40
(UTC+01:00)

Daily predictions for brighter satellites

Satellite Brightness Start Highest point End
(mag) Time Altitude Azimuth Time Altitude Azimuth Time Altitude Azimuth
Cosmos 1420 Rocket 4.1 18:41:18 10° NNW 18:46:33 60° ENE 18:51:47 10° SE
ERS-2 3.0 18:43:59 10° SE 18:47:15 30° ENE 18:50:33 10° N
CZ-4 R/B 2.7 18:45:58 10° S 18:49:51 46° W 18:53:41 10° NNW
Cosmos 2123 Rocket 4.2 18:44:00 10° SSW 18:50:11 77° W 18:56:24 10° N
Cosmos 1812 2.8 18:46:38 10° N 18:50:27 54° ENE 18:54:15 10° SSE
USA 161 4.1 18:50:30 10° NW 18:51:03 11° WNW 18:51:38 10° W
USA 186 3.9 18:51:00 10° ENE 18:51:54 11° ENE 18:52:49 10° NE
Cosmos 1674 Rocket 3.5 18:48:27 10° N 18:52:48 61° ENE 18:57:04 10° SSE
Okean 3 3.6 18:50:14 10° N 18:54:20 51° ENE 18:58:24 10° SSE
Cosmos 1680 Rocket 4.4 18:49:57 10° SW 18:55:08 53° WNW 19:00:23 10° NNE
CZ-2D R/B 4.5 18:55:23 10° ESE 18:58:30 23° ENE 19:01:39 10° N
Cosmos 921 Rocket 3.5 18:57:07 10° N 19:01:27 43° ENE 19:05:45 10° SE
CZ-4C R/B 3.4 18:56:52 10° NW 19:03:02 40° NNE 19:09:49 11° E
NOSS 3-2 (C) 3.6 18:57:08 10° SSW 19:03:03 61° SE 19:09:42 10° NE
Cosmos 1908 Rocket 4.2 19:02:55 10° SSE 19:06:56 33° E 19:10:58 10° NNE
YAOGAN 1 3.9 19:04:24 10° S 19:08:33 44° W 19:12:44 10° NNW
Cosmos 44 Rocket 3.6 19:03:45 10° NW 19:08:45 74° SW 19:13:51 10° SSE
NOAA 12 4.4 19:04:11 10° S 19:09:30 77° WSW 19:14:52 10° NNW
Cosmos 1733 Rocket 2.9 19:08:21 10° S 19:12:40 80° E 19:17:01 10° NNE
Cosmos 2084 Rocket 3.4 19:09:54 10° SW 19:14:14 90° ESE 19:18:22 10° NE
DNEPR-1 R/B 3.5 19:12:49 10° SSW 19:17:00 72° SE 19:21:31 10° NE
SeaSat 1 2.6 19:12:44 10° SE 19:17:32 53° NE 19:22:19 10° NNW
Cosmos 405 2.9 19:14:26 10° S 19:17:56 78° E 19:21:29 10° NNE
SKYMED 2 3.8 19:14:11 10° NNE 19:18:33 77° WNW 19:22:53 10° SSW
EO 1 Del DPAF 3.3 19:16:15 10° NNE 19:20:03 57° ESE 19:23:49 10° S
Cosmos 1943 3.9 19:16:29 10° NNW 19:21:38 34° NE 19:25:43 15° ESE
FengYun 1-2 T 4.2 19:17:24 10° SSE 19:22:54 81° ENE 19:28:25 10° NNW
Thor Agena Rocket 4.3 19:20:18 10° NE 19:24:41 28° E 19:29:01 10° SSE
Envisat 3.3 19:19:56 10° SE 19:24:43 43° ENE 19:29:32 10° N
CENTAUR R/B 3.0 19:20:01 10° S 19:25:44 42° ESE 19:32:13 10° NE
Cosmos 1437 Rocket 3.7 19:22:24 10° SSE 19:25:53 28° E 19:29:25 10° NNE
USA 267 3.4 19:20:40 14° E 19:26:23 65° NNE 19:32:51 10° WNW
Cosmos 1975 Rocket 3.3 19:23:55 10° N 19:28:12 45° ENE 19:32:29 10° SSE
Landsat 4 3.6 19:24:58 10° NNE 19:28:44 86° ESE 19:32:30 10° SSW
Cosmos 1110 Rocket 4.3 19:28:00 10° NNW 19:33:07 48° ENE 19:37:56 12° SE
FREGAT/IRIS 2.6 19:31:58 10° SSE 19:34:56 84° WSW 19:37:56 10° NNW
Cosmos 2237 Rocket 4.5 19:30:57 10° NW 19:35:34 27° WSW 19:40:11 10° SSW
USA 32 4.1 19:30:33 10° SSE 19:35:35 52° E 19:40:40 10° NNE
Tsikada Rocket 4.4 19:30:19 10° SSE 19:36:14 41° E 19:42:10 10° NNE
ALOS 4.1 19:32:04 10° SSW 19:36:21 35° W 19:40:40 10° NNW
Resurs 01 Rocket 2.2 19:35:48 16° ESE 19:38:48 35° ENE 19:42:51 10° N
Cosmos 2227 Rocket 2.5 19:34:20 10° SW 19:40:00 72° WNW 19:45:40 10° NNE
SL-16 R/B 3.0 19:34:57 10° NW 19:40:29 53° WSW 19:45:57 10° S
Cosmos 1939 Rocket 3.7 19:40:37 22° ESE 19:42:25 32° ENE 19:46:06 10° N
Cosmos 1464 Rocket 4.1 19:38:31 10° NNW 19:44:40 79° W 19:50:47 10° S
Cosmos 1184 Rocket 3.6 19:47:27 10° N 19:50:08 32° ENE 19:50:08 32° ENE
Cosmos 1378 Rocket 4.1 19:46:27 10° NNW 19:50:48 61° W 19:55:09 10° S
Meteor 1-13 Rocket 4.2 19:46:23 10° N 19:51:53 58° ENE 19:57:19 10° SSE
Cosmos 2297 Rocket 2.6 19:48:11 10° SW 19:53:48 66° WNW 19:59:29 10° NNE
ATLAS 3B R/B 3.5 19:48:41 10° WSW 19:55:35 50° NNW 20:02:15 10° NE
HJ-1C 3.8 19:53:45 10° S 19:57:09 66° WSW 20:00:34 10° NNW
YAOGAN 6 3.0 19:57:01 38° ENE 19:57:12 38° ENE 20:00:35 10° N
H-2A R/B 3.7 19:58:08 18° NE 19:58:10 18° NE 20:01:41 10° NNE
Cosmos 1536 Rocket 4.3 19:54:32 10° N 19:58:34 32° ENE 19:58:48 32° ENE
Cosmos 1603 3.6 19:53:29 10° NNW 19:59:12 85° ENE 20:04:11 14° SSE
ATLAS CENTAUR R/B 1.8 19:56:00 10° NW 19:59:55 46° NE 20:01:00 37° E
NOSS 3-2 (A) 4.0 19:53:57 10° WSW 20:00:03 62° NW 20:06:57 10° NE
Cosmos 1782 Rocket 3.4 20:00:13 10° S 20:04:39 72° E 20:09:03 10° NNE
Meteor 1-20 Rocket 4.4 19:59:20 10° SSW 20:05:05 80° WNW 20:10:58 10° N
Cosmos 1331 Rocket 3.9 20:00:07 10° NNW 20:05:27 73° ENE 20:09:04 21° SE
CRYOSAT 2 4.2 20:01:34 10° N 20:06:29 75° E 20:11:20 10° S
Iridium 4 Rocket 3.9 20:02:15 10° N 20:07:11 59° W 20:11:41 10° SSW
SJ-6B 3.3 20:05:37 10° S 20:09:21 58° W 20:13:13 10° NNW
Sich 1 Rocket 3.6 20:04:58 10° SSW 20:09:28 82° W 20:13:58 10° N
Cosmos 1633 3.8 20:09:25 10° SSW 20:12:50 42° WNW 20:16:17 10° N
BREEZE-M DEB (TANK) 3.6 20:11:41 10° WSW 20:13:36 21° SSW 20:14:07 20° S
Cosmos 158 Rocket 4.1 20:09:20 10° SSW 20:14:12 70° WNW 20:19:06 10° NNE
Cosmos 2279 Rocket 4.4 20:08:28 10° N 20:14:17 39° ENE 20:15:49 34° E
Spot 2 Rocket 3.5 20:11:49 26° SE 20:14:34 62° ENE 20:19:36 10° N
ERS-1 Rocket 4.4 20:16:05 22° NE 20:16:05 22° NE 20:19:14 10° N
Cosmos 1048 Rocket 3.9 20:13:48 10° SSW 20:19:08 89° ESE 20:24:26 10° NNE
ERS-2 4.4 20:17:46 10° SSW 20:20:56 26° W 20:24:06 10° NW
USA 186 1.9 20:21:47 67° SSW 20:22:07 77° WSW 20:25:28 10° NNW
Okean 2 Rocket 2.9 20:19:59 10° S 20:24:21 71° E 20:28:47 10° NNE
Cosmos 2346 Rocket 4.3 20:24:08 10° S 20:30:19 74° E 20:36:27 10° NNE
USA 215 3.4 20:30:55 39° E 20:32:52 51° SE 20:39:12 10° SW
Cosmos 1634 Rocket 3.8 20:27:05 10° N 20:33:18 79° ENE 20:37:46 20° SSE
Meteor 2-4 Rocket 3.8 20:28:06 10° NNW 20:33:58 84° W 20:38:45 15° S
Cosmos 1302 Rocket 3.8 20:29:51 10° NNW 20:35:05 74° ENE 20:36:11 55° SE
ARGOS 3.7 20:42:50 41° NE 20:42:50 41° NE 20:47:21 10° N
Cosmos 2142 Rocket 4.4 20:36:08 10° N 20:42:33 80° E 20:45:54 30° SSE
Meteor 1-5 Rocket 4.3 20:37:02 10° S 20:42:47 58° E 20:48:39 10° NNE
Cosmos 2227 4.1 20:37:53 10° SSW 20:43:36 75° ESE 20:46:36 29° NE
Meteor 1-11 Rocket 3.6 20:38:25 10° S 20:44:01 79° E 20:49:47 10° NNE
Cosmos 1602 4.5 20:40:51 10° SSW 20:44:40 52° WNW 20:48:29 10° N
ARGOS Delta rocket 4.2 20:41:03 10° N 20:45:58 63° WNW 20:50:36 10° SSW
CZ-4C R/B 2.8 20:45:24 10° NW 20:52:21 87° SW 20:55:02 45° SE
NOSS 3-2 (C) 4.4 20:48:13 10° WSW 20:54:15 47° NNW 20:59:20 18° NE
Cosmos 2082 Rocket 4.2 20:51:38 10° N 20:54:31 14° NNE 20:54:59 14° NNE
SeaSat 1 4.1 20:50:54 10° S 20:55:15 31° WSW 20:59:38 10° NW
COSMOS 2455 3.9 20:52:43 10° SSW 20:55:44 29° S 20:55:44 29° S
NOAA 11 4.1 21:02:47 66° S 21:03:35 83° WSW 21:09:03 10° NNW
Thor Agena Rocket 4.3 20:59:19 10° N 21:04:14 49° WNW 21:09:06 10° SW
Cosmos 1943 3.7 21:00:28 10° NW 21:06:00 57° WSW 21:07:35 42° SSW
COSMOS 2406 4.2 21:00:51 10° NNW 21:05:08 33° NNE 21:05:08 33° NNE
USA 267 3.3 21:08:01 54° SSE 21:09:26 69° SW 21:15:58 10° WNW
Resurs 01 Rocket 3.2 21:13:22 22° SW 21:15:18 32° W 21:19:19 10° NNW
CENTAUR R/B 3.0 21:09:53 10° WSW 21:16:11 61° NW 21:20:22 26° NE
Cosmos 2180 Rocket 4.4 21:18:00 10° N 21:24:12 88° WNW 21:24:12 88° WNW
Cosmos 2227 Rocket 4.5 21:20:53 10° W 21:25:05 21° NW 21:29:17 10° NNE
H-2A R/B 3.1 21:38:46 41° N 21:38:46 41° N 21:42:15 10° NNW
Terra 4.3 21:40:46 13° N 21:40:46 13° N 21:41:25 10° N
ATLAS CENTAUR R/B 3.5 21:35:07 10° WNW 21:37:17 24° W 21:37:17 24° W
ATLAS 3B R/B 4.1 21:41:48 10° WNW 21:47:48 30° N 21:49:53 25° NNE
USA 215 4.0 22:18:16 46° W 22:18:16 46° W 22:22:40 10° WSW
Cosmos 2082 Rocket 4.4 22:35:04 10° NNW 22:36:50 19° N 22:36:50 19° N
CZ-4C R/B 4.3 22:34:35 10° WNW 22:40:15 27° WSW 22:40:15 27° WSW
CENTAUR R/B 4.1 23:02:09 10° WNW 23:07:36 33° NNW 23:07:36 33° NNW
